Weather History for Spirit of St Louis, MO

Change the Weather History Date:

Tuesday, September 24, 2013

  Actual Average Record
Temperature  
Mean Temperature 67 °F -  
Max Temperature 84 °F 75 °F 88 °F (2003)
Min Temperature 52 °F 48 °F 37 °F (2012)
Cooling Degree Days 2    
Growing Degree Days 17 (Base 50)    
Moisture  
Dew Point 58 °F    
Average Humidity 73    
Maximum Humidity 93    
Minimum Humidity 45    
Precipitation  
Precipitation 0.08 in - - ()
Sea Level Pressure  
Sea Level Pressure 29.84 in    
Wind  
Wind Speed 3 mph (ESE)    
Max Wind Speed 9 mph    
Max Gust Speed 20 mph    
Visibility 10 miles    
Events Rain , Thunderstorm    
Averages and records for this station are not official NWS values.
T = Trace of Precipitation, MM = Missing Value Source: NWS Daily Summary

Daily Weather History Graph

Daily Weather History Graph

Search for Another Location

Airport:

Trip Planner

Search our weather history database for the weather conditions in past years. The results will help you decide how hot, cold, wet, or windy it might be!

Date:

Astronomy

Sep. 24, 2013 Rise Set
Actual Time 6:52 AM CDT 6:56 PM CDT
Civil Twilight 6:25 AM CDT 7:22 PM CDT
Nautical Twilight 5:54 AM CDT 7:53 PM CDT
Astronomical Twilight 5:23 AM CDT 8:24 PM CDT
Moon 10:17 PM CDT (9/24) 12:03 PM CDT (9/24)
Length of Visible Light 12h 56m
Length of Day
12h 03m
Waning Gibbous, 73% of the Moon is Illuminated
Sep 24
Waning Gibbous
Sep 26
Last Quarter
Oct 4
New
Oct 11
First Quarter
Oct 18
Full

Hourly Weather History & Observations

Time (CDT) Temp. Heat Index Dew Point Humidity Pressure Visibility Wind Dir Wind Speed Gust Speed Precip Events Conditions
12:54 AM 52.0 °F - 48.9 °F 89% 29.94 in 10.0 mi Calm Calm - N/A   Clear
1:54 AM 57.0 °F - 48.9 °F 74% 29.93 in 10.0 mi Calm Calm - N/A   Clear
2:54 AM 57.0 °F - 50.0 °F 77% 29.93 in 10.0 mi Calm Calm - N/A   Clear
3:54 AM 54.0 °F - 50.0 °F 86% 29.92 in 10.0 mi East 3.5 mph - N/A   Mostly Cloudy
4:54 AM 52.0 °F - 50.0 °F 93% 29.92 in 10.0 mi Calm Calm - N/A   Clear
5:54 AM 53.1 °F - 50.0 °F 89% 29.91 in 10.0 mi East 3.5 mph - N/A   Clear
6:54 AM 55.0 °F - 51.1 °F 86% 29.92 in 10.0 mi East 3.5 mph - N/A   Mostly Cloudy
7:54 AM 57.0 °F - 53.1 °F 87% 29.91 in 10.0 mi East 3.5 mph - N/A   Mostly Cloudy
8:54 AM 63.0 °F - 55.0 °F 75% 29.90 in 10.0 mi ESE 6.9 mph - N/A   Clear
9:54 AM 64.0 °F - 55.9 °F 75% 29.89 in 10.0 mi ESE 4.6 mph - N/A   Mostly Cloudy
10:54 AM 70.0 °F - 57.9 °F 65% 29.88 in 10.0 mi Variable 3.5 mph - N/A   Overcast
11:54 AM 72.0 °F - 59.0 °F 64% 29.87 in 10.0 mi East 4.6 mph - N/A   Scattered Clouds
12:54 PM 77.0 °F - 60.1 °F 56% 29.84 in 10.0 mi SE 6.9 mph - N/A   Mostly Cloudy
1:54 PM 81.0 °F 81.6 °F 60.1 °F 49% 29.81 in 10.0 mi ESE 8.1 mph - N/A   Mostly Cloudy
2:54 PM 82.0 °F 82.1 °F 59.0 °F 45% 29.79 in 10.0 mi SE 9.2 mph 19.6 mph N/A   Mostly Cloudy
3:54 PM 82.9 °F 83.2 °F 60.1 °F 46% 29.78 in 10.0 mi Variable 6.9 mph - N/A   Mostly Cloudy
4:54 PM 81.0 °F 81.3 °F 59.0 °F 47% 29.77 in 10.0 mi SE 5.8 mph - N/A   Scattered Clouds
5:54 PM 81.0 °F 81.7 °F 61.0 °F 50% 29.76 in 10.0 mi ESE 4.6 mph - N/A   Partly Cloudy
6:54 PM 77.0 °F - 62.1 °F 60% 29.76 in 10.0 mi SE 3.5 mph - N/A   Mostly Cloudy
7:54 PM 73.9 °F - 64.0 °F 71% 29.77 in 10.0 mi SE 5.8 mph - N/A   Clear
8:54 PM 73.0 °F - 64.9 °F 76% 29.77 in 10.0 mi SE 5.8 mph - N/A   Clear
9:40 PM 71.6 °F - 64.4 °F 78% 29.80 in 10.0 mi Calm Calm - N/A Thunderstorm Mostly Cloudy
9:54 PM 72.0 °F - 64.9 °F 78% 29.79 in 10.0 mi Calm Calm - N/A   Overcast
10:19 PM 71.6 °F - 64.4 °F 78% 29.81 in 10.0 mi SSW 3.5 mph - N/A Thunderstorm Overcast
10:54 PM 68.0 °F - 64.0 °F 87% 29.81 in 10.0 mi Calm Calm - 0.08 in Rain , Thunderstorm Light Rain
11:17 PM 68.0 °F - 64.4 °F 88% 29.81 in 10.0 mi Calm Calm - 0.00 in Rain Light Rain
11:54 PM 66.9 °F - 64.9 °F 93% 29.80 in 7.0 mi Calm Calm - 0.00 in   Overcast